This is the latest recevied weather packets stored in our database for station/object K2CAT. If no packets are shown the sender has not sent any weather packets the latest 10 day(s).
| Time | Temp. | Humidity | Pressure | Rain* | Wind** | Luminosity | Snow |
|---|---|---|---|---|---|---|---|
| 1777138160 | 8.33° C | 73% | 1018 hPa | 0 mm | - | 119 W/m² | - |
| 1777137856 | 8.33° C | 72% | 1018.1 hPa | 0 mm | - | 132 W/m² | - |
| 1777137552 | 8.89° C | 71% | 1018.1 hPa | 0 mm | - | 161 W/m² | - |
| 1777137250 | 8.89° C | 72% | 1017.9 hPa | 0 mm | - | 183 W/m² | - |
| 1777136948 | 8.33° C | 74% | 1018.2 hPa | 0 mm | - | 192 W/m² | - |
| 1777136643 | 8.89° C | 77% | 1018 hPa | 0 mm | - | 191 W/m² | - |
| 1777136341 | 8.33° C | 75% | 1017.9 hPa | 0 mm | - | 203 W/m² | - |
| 1777136038 | 8.33° C | 75% | 1018 hPa | 0 mm | - | 207 W/m² | - |
| 1777135734 | 8.33° C | 77% | 1017.9 hPa | 1.78 mm | - | 203 W/m² | - |
| 1777135430 | 8.33° C | 74% | 1017.9 hPa | 1.78 mm | - | 175 W/m² | - |
| 1777135127 | 8.33° C | 73% | 1018 hPa | 0 mm | - | 152 W/m² | - |
| 1777134824 | 8.33° C | 73% | 1018.2 hPa | 0 mm | - | 152 W/m² | - |
| 1777134520 | 8.33° C | 75% | 1018.2 hPa | 0 mm | - | 143 W/m² | - |
| 1777134216 | 8.89° C | 71% | 1018.1 hPa | 0 mm | - | 131 W/m² | - |
| 1777133914 | 8.89° C | 72% | 1018.1 hPa | 0 mm | - | 121 W/m² | - |
| 1777133610 | 8.89° C | 70% | 1018.1 hPa | 0 mm | - | 122 W/m² | - |
| 1777133309 | 8.89° C | 68% | 1018.2 hPa | 0 mm | - | 126 W/m² | - |
| 1777133008 | 9.44° C | 66% | 1018.2 hPa | 0 mm | - | 127 W/m² | - |
| 1777132705 | 9.44° C | 64% | 1018.3 hPa | 0 mm | - | 141 W/m² | - |
| 1777132402 | 9.44° C | 67% | 1018.3 hPa | 0 mm | - | 132 W/m² | - |
| 1777132099 | 10° C | 61% | 1018.3 hPa | 0 mm | - | 120 W/m² | - |
| 1777131794 | 10° C | 62% | 1018 hPa | 0 mm | - | 104 W/m² | - |
| 1777131492 | 10° C | 57% | 1018 hPa | 0 mm | - | 93 W/m² | - |
| 1777131191 | 10° C | 57% | 1018 hPa | 0 mm | - | 91 W/m² | - |
| 1777130886 | 10° C | 55% | 1017.9 hPa | 0 mm | - | 110 W/m² | - |
* Rain latest hour (hover to see other rain measurements)
** Current wind speed in m/s (hover to see current wind gust speed)